Grinnell, IA

2:21 AM CDT on March 26, 2017 (GMT -0500)
Grinnell Regional

Weather History for KGGI - May, 2014

Change the Weather History Date:

Tuesday, May 6, 2014

  Actual Average (KTNU) Record (KTNU)
Temperature  
Mean Temperature 59 °F -  
Max Temperature 74 °F 70 °F 86 °F (2016)
Min Temperature 44 °F 45 °F 30 °F (1989)
Degree Days  
Heating Degree Days 6    
Growing Degree Days 9 (Base 50)    
Moisture  
Dew Point 40 °F    
Average Humidity 45    
Maximum Humidity 70    
Minimum Humidity 30    
Precipitation  
Precipitation 0.00 in - - ()
Sea Level Pressure  
Sea Level Pressure 29.76 in    
Wind  
Wind Speed 18 mph (East)    
Max Wind Speed 28 mph    
Max Gust Speed 33 mph    
Visibility 10 miles    
Events      
Averages and records for this station are not official NWS values.
T = Trace of Precipitation, MM = Missing Value Source: NWS Daily Summary

Daily Weather History Graph

Daily Weather History Graph

Search for Another Location

Airport or City:

Trip Planner

Search our weather history database for the weather conditions in past years. The results will help you decide how hot, cold, wet, or windy it might be!

Date:

Astronomy

May. 06, 2014 Rise Set
Actual Time 6:01 AM CDT 8:14 PM CDT
Civil Twilight 5:30 AM CDT 8:45 PM CDT
Nautical Twilight 4:52 AM CDT 9:23 PM CDT
Astronomical Twilight 4:10 AM CDT 10:05 PM CDT
Moon 12:18 PM CDT (5/6) 1:33 AM CDT (5/6)
Length of Visible Light 15h 15m
Length of Day
14h 13m
Waxing Crescent, 46% of the Moon is Illuminated
May 6
Waxing Crescent
May 6
First Quarter
May 14
Full
May 21
Last Quarter
May 28
New

Hourly Weather History & Observations

Time (CDT) Temp. Windchill Dew Point Humidity Pressure Visibility Wind Dir Wind Speed Gust Speed Precip Events Conditions
12:15 AM 51.1 °F - 37.4 °F 60% 29.90 in 10.0 mi East 10.4 mph - N/A   Clear
12:35 AM 50.2 °F - 37.4 °F 62% 29.90 in 10.0 mi East 10.4 mph - N/A   Clear
12:55 AM 50.4 °F - 36.3 °F 59% 29.89 in 10.0 mi East 13.8 mph - N/A   Clear
1:15 AM 50.7 °F - 35.6 °F 56% 29.90 in 10.0 mi East 15.0 mph 19.6 mph N/A   Clear
1:35 AM 50.0 °F - 35.6 °F 58% 29.89 in 10.0 mi East 13.8 mph - N/A   Clear
1:55 AM 48.9 °F - 35.6 °F 60% 29.89 in 10.0 mi East 12.7 mph - N/A   Clear
2:15 AM 48.6 °F - 35.2 °F 60% 29.88 in 10.0 mi East 12.7 mph 19.6 mph N/A   Clear
6:55 AM 44.1 °F 36.5 °F 34.7 °F 70% 29.87 in 10.0 mi East 17.3 mph - N/A   Clear
7:15 AM 45.0 °F 36.9 °F 34.7 °F 67% 29.87 in 10.0 mi East 20.7 mph - N/A   Clear
7:35 AM 45.7 °F 37.6 °F 35.1 °F 66% 29.86 in 10.0 mi East 21.9 mph 26.5 mph N/A   Clear
7:55 AM 46.8 °F - 34.9 °F 63% 29.86 in 10.0 mi East 20.7 mph 26.5 mph N/A   Clear
8:15 AM 48.2 °F - 35.1 °F 60% 29.86 in 10.0 mi East 20.7 mph 26.5 mph N/A   Clear
8:55 AM 51.4 °F - 35.6 °F 55% 29.86 in 10.0 mi East 19.6 mph 25.3 mph N/A   Clear
9:15 AM 53.2 °F - 35.2 °F 51% 29.86 in 10.0 mi East 24.2 mph 28.8 mph N/A   Clear
9:35 AM 54.0 °F - 34.9 °F 49% 29.86 in 10.0 mi East 24.2 mph 28.8 mph N/A   Clear
9:55 AM 55.8 °F - 35.2 °F 46% 29.85 in 10.0 mi East 24.2 mph 32.2 mph N/A   Clear
10:15 AM 56.7 °F - 35.4 °F 45% 29.84 in 10.0 mi ESE 25.3 mph 32.2 mph N/A   Clear
10:35 AM 57.7 °F - 35.8 °F 44% 29.84 in 10.0 mi East 24.2 mph 31.1 mph N/A   Clear
10:55 AM 58.3 °F - 36.5 °F 44% 29.84 in 10.0 mi East 23.0 mph 29.9 mph N/A   Clear
11:15 AM 60.3 °F - 37.4 °F 43% 29.83 in 10.0 mi East 23.0 mph 29.9 mph N/A   Clear
11:35 AM 61.0 °F - 37.4 °F 42% 29.82 in 10.0 mi East 21.9 mph 28.8 mph N/A   Clear
11:55 AM 62.6 °F - 38.1 °F 40% 29.81 in 10.0 mi East 23.0 mph 33.4 mph N/A   Clear
12:15 PM 63.7 °F - 38.5 °F 39% 29.81 in 10.0 mi East 19.6 mph 29.9 mph N/A   Clear
12:35 PM 64.8 °F - 39.0 °F 39% 29.80 in 10.0 mi East 25.3 mph 29.9 mph N/A   Clear
12:55 PM 65.1 °F - 39.2 °F 39% 29.79 in 10.0 mi East 23.0 mph 32.2 mph N/A   Clear
1:15 PM 66.6 °F - 39.7 °F 37% 29.78 in 10.0 mi East 23.0 mph 31.1 mph N/A   Clear
1:35 PM 67.5 °F - 39.9 °F 37% 29.77 in 10.0 mi East 21.9 mph 31.1 mph N/A   Clear
1:55 PM 67.5 °F - 39.4 °F 36% 29.76 in 10.0 mi East 23.0 mph 29.9 mph N/A   Clear
2:15 PM 68.4 °F - 39.4 °F 35% 29.75 in 10.0 mi East 19.6 mph 28.8 mph N/A   Clear
2:35 PM 70.7 °F - 39.9 °F 33% 29.74 in 10.0 mi East 20.7 mph 28.8 mph N/A   Clear
3:15 PM 71.1 °F - 38.1 °F 30% 29.71 in 10.0 mi East 23.0 mph 32.2 mph N/A   Clear
3:35 PM 72.1 °F - 38.7 °F 30% 29.70 in 10.0 mi East 24.2 mph 31.1 mph N/A   Clear
3:55 PM 72.5 °F - 39.9 °F 31% 29.69 in 10.0 mi East 25.3 mph 33.4 mph N/A   Clear
4:15 PM 72.9 °F - 41.4 °F 32% 29.68 in 10.0 mi East 27.6 mph 33.4 mph N/A   Clear
4:35 PM 72.9 °F - 42.4 °F 33% 29.68 in 10.0 mi ESE 19.6 mph 29.9 mph N/A   Clear
4:55 PM 72.9 °F - 42.6 °F 34% 29.68 in 10.0 mi East 19.6 mph 29.9 mph N/A   Clear
5:15 PM 73.8 °F - 43.7 °F 34% 29.68 in 10.0 mi East 20.7 mph 31.1 mph N/A   Clear
5:35 PM 74.1 °F - 43.9 °F 34% 29.67 in 10.0 mi East 20.7 mph 27.6 mph N/A   Clear
5:55 PM 74.3 °F - 44.2 °F 34% 29.66 in 10.0 mi ESE 19.6 mph 27.6 mph N/A   Clear
6:15 PM 74.1 °F - 44.6 °F 35% 29.66 in 10.0 mi ESE 20.7 mph 29.9 mph N/A   Clear
6:35 PM 73.9 °F - 44.8 °F 35% 29.65 in 10.0 mi East 19.6 mph 24.2 mph N/A   Clear
6:55 PM 73.4 °F - 45.5 °F 37% 29.66 in 10.0 mi East 16.1 mph 21.9 mph N/A   Clear
7:15 PM 72.1 °F - 45.7 °F 39% 29.65 in 10.0 mi East 13.8 mph - N/A   Clear
7:35 PM 71.2 °F - 46.0 °F 40% 29.66 in 10.0 mi East 13.8 mph 20.7 mph N/A   Clear
7:55 PM 70.3 °F - 46.4 °F 42% 29.66 in 10.0 mi East 13.8 mph 19.6 mph N/A   Clear
8:15 PM 69.8 °F - 46.6 °F 43% 29.66 in 10.0 mi East 15.0 mph - N/A   Clear
8:35 PM 68.4 °F - 46.8 °F 46% 29.66 in 10.0 mi East 12.7 mph - N/A   Clear
8:55 PM 67.6 °F - 46.9 °F 47% 29.67 in 10.0 mi East 11.5 mph - N/A   Scattered Clouds
9:15 PM 67.1 °F - 45.5 °F 46% 29.68 in 10.0 mi ENE 13.8 mph - N/A   Mostly Cloudy
9:35 PM 66.6 °F - 44.6 °F 45% 29.68 in 10.0 mi ENE 16.1 mph - N/A   Overcast
9:55 PM 65.8 °F - 44.1 °F 45% 29.68 in 10.0 mi ENE 15.0 mph - N/A   Overcast
10:15 PM 64.9 °F - 43.9 °F 46% 29.68 in 10.0 mi ENE 16.1 mph - N/A   Overcast
10:55 PM 62.2 °F - 41.5 °F 47% 29.68 in 10.0 mi ENE 20.7 mph 27.6 mph N/A   Mostly Cloudy
11:15 PM 60.8 °F - 41.5 °F 49% 29.68 in 10.0 mi ENE 20.7 mph - N/A   Scattered Clouds
11:35 PM 59.4 °F - 41.4 °F 51% 29.67 in 10.0 mi ENE 20.7 mph - N/A   Clear
11:55 PM 58.5 °F - 41.2 °F 53% 29.67 in 10.0 mi ENE 19.6 mph - N/A   Clear